Stündliche Wetter Donets'k

Heute, 30 September, Mittwoch

Zeit Temperatur Niederschläge Wind Luftdruck Luftfeuchtigkeit
00:00 +17°C° 0 mm 9 m/S 743 mmHg 39%
01:00 +17°C° 0 mm 9 m/S 743 mmHg 40%
02:00 +16°C° 0 mm 9 m/S 743 mmHg 42%
03:00 +15°C° 0 mm 9 m/S 743 mmHg 44%
04:00 +15°C° 0 mm 9 m/S 743 mmHg 48%
05:00 +13°C° 0 mm 9 m/S 742 mmHg 52%
06:00 +12°C° 0 mm 10 m/S 742 mmHg 56%
07:00 +13°C° 0 mm 10 m/S 742 mmHg 54%
08:00 +13°C° 0 mm 10 m/S 742 mmHg 52%
09:00 +14°C° 0 mm 11 m/S 742 mmHg 52%
10:00 +16°C° 0 mm 11 m/S 742 mmHg 48%
11:00 +18°C° 0 mm 10 m/S 742 mmHg 44%
12:00 +19°C° 0 mm 10 m/S 742 mmHg 39%
13:00 +21°C° 0 mm 10 m/S 741 mmHg 35%
14:00 +22°C° 0 mm 10 m/S 741 mmHg 30%
15:00 +23°C° 0 mm 10 m/S 741 mmHg 25%
16:00 +23°C° 0.3 mm 8 m/S 741 mmHg 28%
17:00 +22°C° 0.3 mm 7 m/S 741 mmHg 32%
18:00 +21°C° 0.3 mm 5 m/S 741 mmHg 35%
19:00 +20°C° 0.2 mm 6 m/S 742 mmHg 39%
20:00 +18°C° 0.2 mm 8 m/S 742 mmHg 42%
21:00 +17°C° 0.2 mm 10 m/S 742 mmHg 45%
22:00 +17°C° 0 mm 10 m/S 742 mmHg 42%
23:00 +17°C° 0 mm 9 m/S 742 mmHg 39%

Morgen, 1 Oktober, Donnerstag

Zeit Temperatur Niederschläge Wind Luftdruck Luftfeuchtigkeit
00:00 +17°C° 0 mm 9 m/S 743 mmHg 37%
01:00 +16°C° 0 mm 9 m/S 743 mmHg 39%
02:00 +15°C° 0 mm 8 m/S 743 mmHg 41%
03:00 +15°C° 0 mm 8 m/S 743 mmHg 43%
04:00 +13°C° 0 mm 8 m/S 743 mmHg 45%
05:00 +14°C° 0 mm 7 m/S 743 mmHg 48%
06:00 +14°C° 0 mm 7 m/S 743 mmHg 51%
07:00 +13°C° 0 mm 8 m/S 744 mmHg 50%
08:00 +15°C° 0 mm 8 m/S 744 mmHg 49%
09:00 +16°C° 0 mm 9 m/S 744 mmHg 47%
10:00 +17°C° 0 mm 9 m/S 744 mmHg 44%
11:00 +20°C° 0 mm 8 m/S 744 mmHg 41%
12:00 +21°C° 0 mm 8 m/S 744 mmHg 38%
13:00 +20°C° 0.5 mm 7 m/S 744 mmHg 42%
14:00 +19°C° 0.5 mm 5 m/S 744 mmHg 46%
15:00 +19°C° 0.5 mm 4 m/S 744 mmHg 50%
16:00 +19°C° 0.2 mm 4 m/S 744 mmHg 51%
17:00 +18°C° 0.2 mm 4 m/S 744 mmHg 51%
18:00 +18°C° 0.2 mm 4 m/S 744 mmHg 52%
19:00 +18°C° 0.4 mm 4 m/S 744 mmHg 51%
20:00 +18°C° 0.4 mm 4 m/S 744 mmHg 50%
21:00 +18°C° 0.4 mm 4 m/S 744 mmHg 50%
22:00 +17°C° 0 mm 5 m/S 744 mmHg 47%
23:00 +17°C° 0 mm 6 m/S 744 mmHg 44%

übermorgen, 2 Oktober, Freitag

Zeit Temperatur Niederschläge Wind Luftdruck Luftfeuchtigkeit
00:00 +17°C° 0 mm 7 m/S 744 mmHg 41%
01:00 +17°C° 0 mm 7 m/S 744 mmHg 43%
02:00 +16°C° 0 mm 7 m/S 744 mmHg 45%
03:00 +15°C° 0 mm 7 m/S 745 mmHg 47%
04:00 +15°C° 0 mm 6 m/S 745 mmHg 50%
05:00 +14°C° 0 mm 6 m/S 745 mmHg 52%
06:00 +14°C° 0 mm 5 m/S 745 mmHg 55%
07:00 +15°C° 0 mm 6 m/S 745 mmHg 54%
08:00 +15°C° 0 mm 6 m/S 746 mmHg 53%
09:00 +16°C° 0 mm 6 m/S 746 mmHg 52%
10:00 +17°C° 0 mm 6 m/S 746 mmHg 48%
11:00 +19°C° 0 mm 6 m/S 746 mmHg 45%
12:00 +21°C° 0 mm 5 m/S 747 mmHg 42%
13:00 +21°C° 0 mm 5 m/S 747 mmHg 41%
14:00 +22°C° 0 mm 5 m/S 747 mmHg 40%
15:00 +23°C° 0 mm 4 m/S 747 mmHg 39%
16:00 +22°C° 0 mm 4 m/S 747 mmHg 41%
17:00 +21°C° 0 mm 4 m/S 747 mmHg 44%
18:00 +20°C° 0 mm 3 m/S 747 mmHg 46%
19:00 +19°C° 0 mm 3 m/S 747 mmHg 49%
20:00 +18°C° 0 mm 3 m/S 748 mmHg 52%
21:00 +17°C° 0 mm 3 m/S 748 mmHg 54%
22:00 +17°C° 0 mm 3 m/S 748 mmHg 57%
23:00 +16°C° 0 mm 3 m/S 748 mmHg 60%

3 Oktober, Samstag

Zeit Temperatur Niederschläge Wind Luftdruck Luftfeuchtigkeit
00:00 +16°C° 0 mm 3 m/S 748 mmHg 62%
01:00 +14°C° 0 mm 3 m/S 748 mmHg 61%
02:00 +14°C° 0 mm 3 m/S 748 mmHg 60%
03:00 +14°C° 0 mm 4 m/S 749 mmHg 59%
04:00 +13°C° 0 mm 4 m/S 749 mmHg 67%
05:00 +13°C° 0 mm 4 m/S 749 mmHg 74%
06:00 +12°C° 0 mm 4 m/S 749 mmHg 82%
07:00 +13°C° 0 mm 5 m/S 749 mmHg 77%
08:00 +14°C° 0 mm 5 m/S 750 mmHg 73%
09:00 +15°C° 0 mm 5 m/S 750 mmHg 69%
10:00 +16°C° 0 mm 5 m/S 750 mmHg 63%
11:00 +19°C° 0 mm 5 m/S 750 mmHg 57%
12:00 +21°C° 0 mm 4 m/S 750 mmHg 51%
13:00 +21°C° 0 mm 4 m/S 750 mmHg 48%
14:00 +22°C° 0 mm 4 m/S 750 mmHg 45%
15:00 +22°C° 0 mm 3 m/S 750 mmHg 42%
16:00 +22°C° 0 mm 3 m/S 749 mmHg 43%
17:00 +21°C° 0 mm 2 m/S 749 mmHg 45%
18:00 +20°C° 0 mm 2 m/S 749 mmHg 47%
19:00 +19°C° 0 mm 2 m/S 750 mmHg 47%
20:00 +18°C° 0 mm 3 m/S 750 mmHg 48%
21:00 +17°C° 0 mm 3 m/S 750 mmHg 49%
22:00 +17°C° 0 mm 3 m/S 750 mmHg 52%
23:00 +16°C° 0 mm 3 m/S 750 mmHg 54%

4 Oktober, Sonntag

Zeit Temperatur Niederschläge Wind Luftdruck Luftfeuchtigkeit
00:00 +16°C° 0 mm 3 m/S 750 mmHg 57%
01:00 +16°C° 0 mm 3 m/S 750 mmHg 59%
02:00 +14°C° 0 mm 3 m/S 750 mmHg 60%
03:00 +14°C° 0 mm 3 m/S 750 mmHg 62%
04:00 +13°C° 0 mm 3 m/S 750 mmHg 62%
05:00 +13°C° 0 mm 3 m/S 750 mmHg 61%
06:00 +13°C° 0 mm 3 m/S 750 mmHg 61%
07:00 +14°C° 0 mm 3 m/S 750 mmHg 58%
08:00 +16°C° 0 mm 3 m/S 750 mmHg 55%
09:00 +17°C° 0 mm 3 m/S 750 mmHg 52%
10:00 +19°C° 0 mm 3 m/S 750 mmHg 48%
11:00 +21°C° 0 mm 3 m/S 750 mmHg 44%
12:00 +22°C° 0 mm 3 m/S 750 mmHg 40%
13:00 +24°C° 0 mm 3 m/S 750 mmHg 38%
14:00 +25°C° 0 mm 3 m/S 750 mmHg 37%
15:00 +25°C° 0 mm 2 m/S 750 mmHg 35%
16:00 +24°C° 0 mm 2 m/S 749 mmHg 37%
17:00 +24°C° 0 mm 2 m/S 749 mmHg 40%
18:00 +23°C° 0 mm 1 m/S 749 mmHg 42%
19:00 +22°C° 0 mm 1 m/S 749 mmHg 46%
20:00 +21°C° 0 mm 1 m/S 750 mmHg 49%
21:00 +20°C° 0 mm 1 m/S 750 mmHg 52%
22:00 +18°C° 0 mm 2 m/S 750 mmHg 53%
23:00 +18°C° 0 mm 2 m/S 750 mmHg 55%

5 Oktober, Montag

Zeit Temperatur Niederschläge Wind Luftdruck Luftfeuchtigkeit
00:00 +17°C° 0 mm 3 m/S 749 mmHg 56%
01:00 +17°C° 0 mm 3 m/S 749 mmHg 55%
02:00 +16°C° 0 mm 3 m/S 749 mmHg 55%
03:00 +16°C° 0 mm 3 m/S 749 mmHg 55%
04:00 +14°C° 0 mm 3 m/S 749 mmHg 53%
05:00 +14°C° 0 mm 3 m/S 750 mmHg 52%
06:00 +14°C° 0 mm 3 m/S 750 mmHg 50%
07:00 +16°C° 0 mm 3 m/S 750 mmHg 45%
08:00 +17°C° 0 mm 3 m/S 750 mmHg 41%
09:00 +19°C° 0 mm 3 m/S 750 mmHg 36%
10:00 +20°C° 0 mm 4 m/S 750 mmHg 34%
11:00 +22°C° 0 mm 4 m/S 750 mmHg 33%
12:00 +25°C° 0 mm 5 m/S 750 mmHg 31%
13:00 +25°C° 0 mm 4 m/S 750 mmHg 30%
14:00 +26°C° 0 mm 4 m/S 750 mmHg 29%
15:00 +27°C° 0 mm 4 m/S 750 mmHg 29%
16:00 +25°C° 0 mm 4 m/S 749 mmHg 31%
17:00 +24°C° 0 mm 3 m/S 749 mmHg 34%
18:00 +22°C° 0 mm 3 m/S 749 mmHg 37%
19:00 +21°C° 0 mm 3 m/S 749 mmHg 38%
20:00 +20°C° 0 mm 4 m/S 749 mmHg 40%
21:00 +19°C° 0 mm 4 m/S 749 mmHg 41%
22:00 +19°C° 0 mm 4 m/S 749 mmHg 39%
23:00 +18°C° 0 mm 4 m/S 749 mmHg 37%
Mehr zeigen